Time,TemperatureF,DewpointF,PressureIn,WindDirection,WindDirectionDegrees,WindSpeedMPH,WindSpeedGustMPH,Humidity,HourlyPrecipIn,Conditions,Clouds,dailyrainin,SoftwareType,DateUTC
2013-02-05 00:03:00,25.9,24.4,29.93,SSW,194,10.0,14.0,94,0.00,,,0.00,meteohub,2013-02-05 06:03:00,
2013-02-05 00:08:00,25.9,24.4,29.93,SSW,212,7.0,14.0,94,0.00,,,0.00,meteohub,2013-02-05 06:08:00,
2013-02-05 00:13:00,25.9,24.4,29.93,SSW,200,9.0,12.0,94,0.00,,,0.00,meteohub,2013-02-05 06:13:00,
2013-02-05 00:18:00,25.9,24.4,29.93,SSW,207,7.0,15.0,94,0.00,,,0.00,meteohub,2013-02-05 06:18:00,
2013-02-05 00:23:00,26.1,24.6,29.93,SSW,206,5.0,15.0,94,0.00,,,0.00,meteohub,2013-02-05 06:23:00,
2013-02-05 00:28:00,26.1,24.6,29.93,SSW,199,10.0,15.0,94,0.00,,,0.00,meteohub,2013-02-05 06:28:00,
2013-02-05 00:33:00,26.1,24.6,29.94,SSW,204,8.0,12.0,94,0.00,,,0.00,meteohub,2013-02-05 06:33:00,
2013-02-05 00:39:00,26.1,24.6,29.94,SSW,211,6.0,11.0,94,0.00,,,0.00,meteohub,2013-02-05 06:39:00,
2013-02-05 00:44:00,26.1,24.6,29.94,SW,236,3.0,11.0,94,0.00,,,0.00,meteohub,2013-02-05 06:44:00,
2013-02-05 00:49:00,26.1,24.6,29.94,SW,225,3.0,10.0,94,0.00,,,0.00,meteohub,2013-02-05 06:49:00,
2013-02-05 00:54:00,26.1,24.6,29.94,SW,234,5.0,8.0,94,0.00,,,0.00,meteohub,2013-02-05 06:54:00,
2013-02-05 00:59:00,26.2,24.8,29.94,SW,234,4.0,7.0,94,0.00,,,0.00,meteohub,2013-02-05 06:59:00,
2013-02-05 01:04:00,26.2,24.8,29.94,SW,235,5.0,6.0,94,0.00,,,0.00,meteohub,2013-02-05 07:04:00,
2013-02-05 01:09:00,26.2,24.8,29.94,SW,234,5.0,7.0,94,0.00,,,0.00,meteohub,2013-02-05 07:09:00,
2013-02-05 01:14:00,26.2,24.8,29.94,WSW,242,3.0,7.0,94,0.00,,,0.00,meteohub,2013-02-05 07:14:00,
2013-02-05 01:19:00,26.4,25.0,29.94,SW,228,3.0,7.0,94,0.00,,,0.00,meteohub,2013-02-05 07:19:00,
2013-02-05 01:24:00,26.4,25.0,29.94,SW,223,5.0,7.0,94,0.00,,,0.00,meteohub,2013-02-05 07:24:00,
2013-02-05 01:29:00,26.4,25.0,29.94,SW,227,1.0,7.0,94,0.00,,,0.00,meteohub,2013-02-05 07:29:00,
2013-02-05 01:34:00,26.4,25.0,29.93,SW,231,3.0,7.0,94,0.00,,,0.00,meteohub,2013-02-05 07:34:00,
2013-02-05 01:39:00,26.4,25.0,29.93,SSW,211,3.0,7.0,94,0.00,,,0.00,meteohub,2013-02-05 07:39:00,
2013-02-05 01:44:00,26.4,25.0,29.93,SW,230,4.0,6.0,94,0.00,,,0.00,meteohub,2013-02-05 07:44:00,
2013-02-05 01:49:00,26.4,25.0,29.93,SW,231,6.0,6.0,94,0.00,,,0.00,meteohub,2013-02-05 07:49:00,
2013-02-05 01:54:00,26.6,25.2,29.93,SW,219,4.0,7.0,94,0.00,,,0.00,meteohub,2013-02-05 07:54:00,
2013-02-05 02:00:00,26.6,25.2,29.93,WSW,239,4.0,8.0,94,0.00,,,0.00,meteohub,2013-02-05 08:00:00,
2013-02-05 02:05:00,26.8,25.3,29.92,SSW,207,4.0,8.0,94,0.00,,,0.00,meteohub,2013-02-05 08:05:00,
2013-02-05 02:10:00,26.8,25.3,29.92,SW,221,5.0,8.0,94,0.00,,,0.00,meteohub,2013-02-05 08:10:00,
2013-02-05 02:15:00,26.8,25.3,29.92,SW,229,5.0,9.0,94,0.00,,,0.00,meteohub,2013-02-05 08:15:00,
2013-02-05 02:20:00,27.0,25.5,29.92,SW,234,8.0,11.0,94,0.00,,,0.00,meteohub,2013-02-05 08:20:00,
2013-02-05 02:25:00,27.0,25.5,29.92,WSW,239,8.0,11.0,94,0.00,,,0.00,meteohub,2013-02-05 08:25:00,
2013-02-05 02:30:00,27.0,25.2,29.92,SW,234,6.0,11.0,93,0.00,,,0.00,meteohub,2013-02-05 08:30:00,
2013-02-05 02:35:00,27.1,25.3,29.92,SW,229,8.0,11.0,93,0.00,,,0.00,meteohub,2013-02-05 08:35:00,
2013-02-05 02:40:00,27.1,25.3,29.92,SW,218,7.0,11.0,93,0.00,,,0.00,meteohub,2013-02-05 08:40:00,
2013-02-05 02:45:00,27.1,25.3,29.92,SW,228,7.0,10.0,93,0.00,,,0.00,meteohub,2013-02-05 08:45:00,
2013-02-05 02:50:00,27.1,25.3,29.92,SW,216,5.0,10.0,93,0.00,,,0.00,meteohub,2013-02-05 08:50:00,
2013-02-05 02:55:00,27.1,25.3,29.93,SW,231,4.0,10.0,93,0.00,,,0.00,meteohub,2013-02-05 08:55:00,
2013-02-05 03:00:00,27.1,25.3,29.92,SW,227,5.0,10.0,93,0.00,,,0.00,meteohub,2013-02-05 09:00:00,
2013-02-05 03:05:00,27.1,25.3,29.92,SW,219,5.0,9.0,93,0.00,,,0.00,meteohub,2013-02-05 09:05:00,
2013-02-05 03:10:00,27.1,25.3,29.92,SW,225,5.0,9.0,93,0.00,,,0.00,meteohub,2013-02-05 09:10:00,
2013-02-05 03:15:00,27.1,25.3,29.91,South,190,6.0,8.0,93,0.00,,,0.00,meteohub,2013-02-05 09:15:00,
2013-02-05 03:20:00,27.1,25.3,29.91,SW,222,5.0,9.0,93,0.00,,,0.00,meteohub,2013-02-05 09:20:00,
2013-02-05 03:25:00,27.1,25.3,29.91,SSW,198,6.0,10.0,93,0.00,,,0.00,meteohub,2013-02-05 09:25:00,
2013-02-05 03:30:00,27.1,25.2,29.91,SW,219,6.0,10.0,92,0.00,,,0.00,meteohub,2013-02-05 09:30:00,
2013-02-05 03:36:00,27.1,25.2,29.91,SW,223,6.0,9.0,92,0.00,,,0.00,meteohub,2013-02-05 09:36:00,
2013-02-05 03:41:00,27.1,25.2,29.91,SSW,198,5.0,9.0,92,0.00,,,0.00,meteohub,2013-02-05 09:41:00,
2013-02-05 03:46:00,27.1,25.2,29.91,SW,230,6.0,9.0,92,0.00,,,0.00,meteohub,2013-02-05 09:46:00,
2013-02-05 03:51:00,27.1,25.2,29.91,SSW,209,5.0,9.0,92,0.00,,,0.00,meteohub,2013-02-05 09:51:00,
2013-02-05 03:56:00,27.3,25.3,29.91,SW,226,5.0,9.0,92,0.00,,,0.00,meteohub,2013-02-05 09:56:00,
2013-02-05 04:01:00,27.3,25.3,29.91,SW,227,6.0,9.0,92,0.00,,,0.00,meteohub,2013-02-05 10:01:00,
2013-02-05 04:06:00,27.3,25.3,29.91,SW,222,8.0,9.0,92,0.00,,,0.00,meteohub,2013-02-05 10:06:00,
2013-02-05 04:11:00,27.3,25.3,29.91,SSW,204,6.0,9.0,92,0.00,,,0.00,meteohub,2013-02-05 10:11:00,
2013-02-05 04:16:00,27.3,25.3,29.90,SW,226,6.0,10.0,92,0.00,,,0.00,meteohub,2013-02-05 10:16:00,
2013-02-05 04:21:00,27.5,25.5,29.90,SW,218,4.0,10.0,92,0.00,,,0.00,meteohub,2013-02-05 10:21:00,
2013-02-05 04:26:00,27.3,25.3,29.90,SSW,207,8.0,10.0,92,0.00,,,0.00,meteohub,2013-02-05 10:26:00,
2013-02-05 04:31:00,27.3,25.3,29.90,SW,216,7.0,10.0,92,0.00,,,0.00,meteohub,2013-02-05 10:31:00,
2013-02-05 04:36:00,27.3,25.3,29.89,SW,225,8.0,10.0,92,0.00,,,0.00,meteohub,2013-02-05 10:36:00,
2013-02-05 04:41:00,27.3,25.3,29.89,SW,217,7.0,11.0,92,0.00,,,0.00,meteohub,2013-02-05 10:41:00,
2013-02-05 04:46:00,27.5,25.5,29.90,SSW,195,9.0,13.0,92,0.00,,,0.00,meteohub,2013-02-05 10:46:00,
2013-02-05 04:51:00,27.7,25.7,29.91,SW,215,7.0,13.0,92,0.00,,,0.00,meteohub,2013-02-05 10:51:00,
2013-02-05 04:57:00,27.7,25.7,29.91,SW,223,5.0,13.0,92,0.00,,,0.00,meteohub,2013-02-05 10:57:00,
2013-02-05 05:02:00,27.7,25.7,29.91,SW,229,6.0,13.0,92,0.00,,,0.00,meteohub,2013-02-05 11:02:00,
2013-02-05 05:07:00,28.0,26.1,29.91,SW,230,8.0,8.0,92,0.00,,,0.00,meteohub,2013-02-05 11:07:00,
2013-02-05 05:12:00,28.4,26.4,29.91,SW,224,6.0,11.0,92,0.00,,,0.00,meteohub,2013-02-05 11:12:00,
2013-02-05 05:17:00,28.6,26.2,29.91,SW,227,6.0,11.0,91,0.00,,,0.00,meteohub,2013-02-05 11:17:00,
2013-02-05 05:22:00,28.6,26.2,29.91,SW,236,8.0,11.0,91,0.00,,,0.00,meteohub,2013-02-05 11:22:00,
2013-02-05 05:27:00,28.8,26.4,29.91,SW,221,8.0,10.0,91,0.00,,,0.00,meteohub,2013-02-05 11:27:00,
2013-02-05 05:32:00,28.8,26.4,29.91,SW,227,4.0,10.0,91,0.00,,,0.00,meteohub,2013-02-05 11:32:00,
2013-02-05 05:37:00,28.9,26.6,29.91,North,0,7.0,10.0,91,0.00,,,0.00,meteohub,2013-02-05 11:37:00,
2013-02-05 05:42:00,29.1,26.8,29.91,SW,234,7.0,9.0,91,0.00,,,0.00,meteohub,2013-02-05 11:42:00,
2013-02-05 05:47:00,29.3,27.0,29.91,NW,304,6.0,10.0,91,0.00,,,0.00,meteohub,2013-02-05 11:47:00,
2013-02-05 05:52:00,29.5,27.1,29.91,SW,232,3.0,10.0,91,0.00,,,0.00,meteohub,2013-02-05 11:52:00,
2013-02-05 05:57:00,29.7,27.3,29.91,SW,235,6.0,10.0,91,0.00,,,0.00,meteohub,2013-02-05 11:57:00,
2013-02-05 06:02:00,30.0,27.7,29.91,West,259,1.0,8.0,91,0.00,,,0.00,meteohub,2013-02-05 12:02:00,
2013-02-05 06:07:00,30.4,27.9,29.91,WSW,240,5.0,9.0,90,0.00,,,0.00,meteohub,2013-02-05 12:07:00,
2013-02-05 06:12:00,30.6,28.0,29.92,WSW,243,7.0,10.0,90,0.00,,,0.00,meteohub,2013-02-05 12:12:00,
2013-02-05 06:17:00,30.7,27.9,29.92,West,265,4.0,10.0,89,0.00,,,0.00,meteohub,2013-02-05 12:17:00,
2013-02-05 06:22:00,30.6,27.7,29.92,West,262,4.0,11.0,89,0.00,,,0.00,meteohub,2013-02-05 12:22:00,
2013-02-05 06:27:00,30.6,27.7,29.92,WSW,238,4.0,11.0,89,0.00,,,0.00,meteohub,2013-02-05 12:27:00,
2013-02-05 06:32:00,30.4,27.5,29.92,WSW,257,4.0,11.0,89,0.00,,,0.00,meteohub,2013-02-05 12:32:00,
2013-02-05 06:37:00,30.4,27.9,29.92,WNW,286,6.0,10.0,90,0.00,,,0.00,meteohub,2013-02-05 12:37:00,
2013-02-05 06:42:00,30.2,27.3,29.92,SW,223,6.0,12.0,89,0.00,,,0.00,meteohub,2013-02-05 12:42:00,
2013-02-05 06:47:00,30.0,27.5,29.93,WSW,250,7.0,12.0,90,0.00,,,0.00,meteohub,2013-02-05 12:47:00,
2013-02-05 06:52:00,30.2,27.7,29.93,SW,229,4.0,12.0,90,0.00,,,0.00,meteohub,2013-02-05 12:52:00,
2013-02-05 06:57:00,30.4,27.9,29.93,WNW,286,7.0,11.0,90,0.00,,,0.00,meteohub,2013-02-05 12:57:00,
2013-02-05 07:02:00,30.6,28.0,29.93,West,277,9.0,12.0,90,0.00,,,0.00,meteohub,2013-02-05 13:02:00,
2013-02-05 07:07:00,30.6,28.0,29.93,West,261,6.0,12.0,90,0.00,,,0.00,meteohub,2013-02-05 13:07:00,
2013-02-05 07:12:00,30.6,27.7,29.93,SW,230,7.0,12.0,89,0.00,,,0.00,meteohub,2013-02-05 13:12:00,
2013-02-05 07:17:00,30.6,27.7,29.94,WSW,256,5.0,10.0,89,0.00,,,0.00,meteohub,2013-02-05 13:17:00,
2013-02-05 07:22:00,30.6,27.7,29.94,WSW,257,4.0,10.0,89,0.00,,,0.00,meteohub,2013-02-05 13:22:00,
2013-02-05 07:27:00,30.4,27.5,29.94,West,266,4.0,10.0,89,0.00,,,0.00,meteohub,2013-02-05 13:27:00,
2013-02-05 07:32:00,30.4,27.5,29.93,WSW,238,3.0,10.0,89,0.00,,,0.00,meteohub,2013-02-05 13:32:00,
2013-02-05 07:37:00,30.6,27.7,29.93,South,173,4.0,7.0,89,0.00,,,0.00,meteohub,2013-02-05 13:37:00,
2013-02-05 07:42:00,30.7,27.9,29.94,West,271,5.0,10.0,89,0.00,,,0.00,meteohub,2013-02-05 13:42:00,
2013-02-05 07:47:00,31.1,28.2,29.94,WNW,292,4.0,10.0,89,0.00,,,0.00,meteohub,2013-02-05 13:47:00,
2013-02-05 07:52:00,31.3,28.2,29.94,West,270,6.0,10.0,88,0.00,,,0.00,meteohub,2013-02-05 13:52:00,
2013-02-05 07:57:00,31.5,28.4,29.94,WNW,284,4.0,9.0,88,0.00,,,0.00,meteohub,2013-02-05 13:57:00,
2013-02-05 08:02:00,31.6,28.6,29.94,SW,234,4.0,9.0,88,0.00,,,0.00,meteohub,2013-02-05 14:02:00,
2013-02-05 08:07:00,32.2,28.9,29.94,West,263,4.0,9.0,88,0.00,,,0.00,meteohub,2013-02-05 14:07:00,
2013-02-05 08:12:00,32.9,29.1,29.94,West,260,6.0,13.0,86,0.00,,,0.00,meteohub,2013-02-05 14:12:00,
2013-02-05 08:17:00,33.8,29.8,29.95,West,268,9.0,13.0,85,0.00,,,0.00,meteohub,2013-02-05 14:17:00,
2013-02-05 08:22:00,34.7,30.0,29.95,West,280,5.0,13.0,83,0.00,,,0.00,meteohub,2013-02-05 14:22:00,
2013-02-05 08:27:00,35.8,30.6,29.95,WNW,290,12.0,12.0,81,0.00,,,0.00,meteohub,2013-02-05 14:27:00,
2013-02-05 08:32:00,36.1,30.6,29.96,West,280,10.0,16.0,80,0.00,,,0.00,meteohub,2013-02-05 14:32:00,
2013-02-05 08:37:00,36.5,30.6,29.96,WNW,284,10.0,16.0,79,0.00,,,0.00,meteohub,2013-02-05 14:37:00,
2013-02-05 08:42:00,36.9,30.6,29.96,WNW,287,10.0,15.0,78,0.00,,,0.00,meteohub,2013-02-05 14:42:00,
2013-02-05 08:47:00,37.4,31.1,29.96,WNW,295,9.0,13.0,78,0.00,,,0.00,meteohub,2013-02-05 14:47:00,
2013-02-05 08:52:00,37.8,31.3,29.97,WNW,295,14.0,14.0,77,0.00,,,0.00,meteohub,2013-02-05 14:52:00,
2013-02-05 08:57:00,37.9,31.1,29.97,WNW,292,12.0,15.0,76,0.00,,,0.00,meteohub,2013-02-05 14:57:00,
2013-02-05 09:02:00,38.3,31.5,29.98,WNW,295,12.0,16.0,76,0.00,,,0.00,meteohub,2013-02-05 15:02:00,
2013-02-05 09:07:00,38.8,31.6,29.98,WNW,296,12.0,16.0,75,0.00,,,0.00,meteohub,2013-02-05 15:07:00,
2013-02-05 09:12:00,39.7,32.2,29.98,WNW,292,15.0,17.0,74,0.00,,,0.00,meteohub,2013-02-05 15:12:00,
2013-02-05 09:17:00,40.1,32.2,29.99,WNW,284,12.0,17.0,73,0.00,,,0.00,meteohub,2013-02-05 15:17:00,
2013-02-05 09:22:00,40.6,32.7,29.99,WNW,298,13.0,17.0,73,0.00,,,0.00,meteohub,2013-02-05 15:22:00,
2013-02-05 09:27:00,41.7,33.4,29.99,WNW,297,13.0,17.0,72,0.00,,,0.00,meteohub,2013-02-05 15:27:00,
2013-02-05 09:32:00,42.3,32.9,30.00,WNW,299,11.0,17.0,69,0.00,,,0.00,meteohub,2013-02-05 15:32:00,
2013-02-05 09:37:00,42.1,32.7,30.00,WNW,300,13.0,17.0,69,0.00,,,0.00,meteohub,2013-02-05 15:37:00,
2013-02-05 09:42:00,41.7,32.7,30.01,WNW,293,12.0,17.0,70,0.00,,,0.00,meteohub,2013-02-05 15:42:00,
2013-02-05 09:47:00,42.3,32.9,30.01,WNW,294,10.0,17.0,69,0.00,,,0.00,meteohub,2013-02-05 15:47:00,
2013-02-05 09:52:00,42.4,33.1,30.00,WNW,288,14.0,18.0,69,0.00,,,0.00,meteohub,2013-02-05 15:52:00,
2013-02-05 09:57:00,42.6,33.1,30.01,NW,304,10.0,18.0,69,0.00,,,0.00,meteohub,2013-02-05 15:57:00,
2013-02-05 10:02:00,43.0,33.8,30.01,WNW,298,9.0,18.0,70,0.00,,,0.00,meteohub,2013-02-05 16:02:00,
2013-02-05 10:07:00,43.3,33.4,30.01,West,278,10.0,16.0,68,0.00,,,0.00,meteohub,2013-02-05 16:07:00,
2013-02-05 10:12:00,43.3,33.4,30.01,WNW,298,15.0,15.0,68,0.00,,,0.00,meteohub,2013-02-05 16:12:00,
2013-02-05 10:17:00,43.5,33.3,30.02,WNW,290,14.0,17.0,67,0.00,,,0.00,meteohub,2013-02-05 16:17:00,
2013-02-05 10:22:00,43.5,33.6,30.03,WNW,291,9.0,17.0,68,0.00,,,0.00,meteohub,2013-02-05 16:22:00,
2013-02-05 10:27:00,43.7,34.2,30.03,WNW,295,11.0,17.0,69,0.00,,,0.00,meteohub,2013-02-05 16:27:00,
2013-02-05 10:32:00,44.1,34.2,30.03,WNW,290,13.0,18.0,68,0.00,,,0.00,meteohub,2013-02-05 16:32:00,
2013-02-05 10:37:00,44.4,34.2,30.03,NW,312,12.0,18.0,67,0.00,,,0.00,meteohub,2013-02-05 16:37:00,
2013-02-05 10:42:00,44.8,34.5,30.04,NW,308,21.0,22.0,67,0.00,,,0.00,meteohub,2013-02-05 16:42:00,
2013-02-05 10:47:00,45.1,34.2,30.04,NW,311,23.0,23.0,65,0.00,,,0.00,meteohub,2013-02-05 16:47:00,
2013-02-05 10:52:00,45.3,34.7,30.04,NW,316,16.0,26.0,66,0.00,,,0.00,meteohub,2013-02-05 16:52:00,
2013-02-05 10:57:00,45.3,34.7,30.04,NW,309,15.0,26.0,66,0.00,,,0.00,meteohub,2013-02-05 16:57:00,
2013-02-05 11:02:00,45.3,34.7,30.04,NW,304,14.0,25.0,66,0.00,,,0.00,meteohub,2013-02-05 17:02:00,
2013-02-05 11:08:00,45.5,34.9,30.05,WNW,298,14.0,21.0,66,0.00,,,0.00,meteohub,2013-02-05 17:08:00,
2013-02-05 11:13:00,45.5,34.3,30.05,NNW,334,18.0,21.0,65,0.00,,,0.00,meteohub,2013-02-05 17:13:00,
2013-02-05 11:18:00,45.3,33.8,30.05,NW,321,17.0,23.0,64,0.00,,,0.00,meteohub,2013-02-05 17:18:00,
2013-02-05 11:23:00,45.3,34.3,30.05,NNW,331,25.0,26.0,65,0.00,,,0.00,meteohub,2013-02-05 17:23:00,
2013-02-05 11:28:00,45.3,34.3,30.05,NW,316,19.0,26.0,65,0.00,,,0.00,meteohub,2013-02-05 17:28:00,
2013-02-05 11:33:00,45.3,34.3,30.06,NW,315,20.0,28.0,65,0.00,,,0.00,meteohub,2013-02-05 17:33:00,
2013-02-05 11:38:00,45.7,35.4,30.06,WNW,296,21.0,28.0,67,0.00,,,0.00,meteohub,2013-02-05 17:38:00,
2013-02-05 11:43:00,45.5,34.0,30.05,NW,319,17.0,26.0,64,0.00,,,0.00,meteohub,2013-02-05 17:43:00,
2013-02-05 11:48:00,45.7,35.4,30.06,NW,318,14.0,25.0,67,0.00,,,0.00,meteohub,2013-02-05 17:48:00,
2013-02-05 11:53:00,45.7,34.5,30.05,NW,313,14.0,25.0,65,0.00,,,0.00,meteohub,2013-02-05 17:53:00,
2013-02-05 11:58:00,45.9,34.3,30.05,NW,304,16.0,25.0,64,0.00,,,0.00,meteohub,2013-02-05 17:58:00,
2013-02-05 12:04:00,46.0,34.5,30.05,NW,313,18.0,23.0,64,0.00,,,0.00,meteohub,2013-02-05 18:04:00,
2013-02-05 12:09:00,46.2,35.1,30.04,NNW,333,15.0,24.0,65,0.00,,,0.00,meteohub,2013-02-05 18:09:00,
2013-02-05 12:14:00,46.6,35.1,30.05,WNW,298,14.0,24.0,64,0.00,,,0.00,meteohub,2013-02-05 18:14:00,
2013-02-05 12:19:00,46.8,34.9,30.05,WNW,300,16.0,22.0,63,0.00,,,0.00,meteohub,2013-02-05 18:19:00,
2013-02-05 12:24:00,46.9,35.1,30.05,NW,304,18.0,22.0,63,0.00,,,0.00,meteohub,2013-02-05 18:24:00,
2013-02-05 12:29:00,46.9,35.8,30.05,NW,306,14.0,21.0,65,0.00,,,0.00,meteohub,2013-02-05 18:29:00,
2013-02-05 12:34:00,47.1,34.7,30.05,NW,309,12.0,21.0,62,0.00,,,0.00,meteohub,2013-02-05 18:34:00,
2013-02-05 12:39:00,47.1,33.4,30.05,NW,317,14.0,22.0,59,0.00,,,0.00,meteohub,2013-02-05 18:39:00,
2013-02-05 12:44:00,47.7,34.5,30.05,NW,309,14.0,23.0,60,0.00,,,0.00,meteohub,2013-02-05 18:44:00,
2013-02-05 12:50:00,48.0,36.0,30.05,NNW,329,15.0,23.0,63,0.00,,,0.00,meteohub,2013-02-05 18:50:00,
2013-02-05 12:55:00,47.8,34.7,30.05,NNW,327,18.0,23.0,60,0.00,,,0.00,meteohub,2013-02-05 18:55:00,
2013-02-05 13:00:00,48.0,34.9,30.05,NW,311,11.0,21.0,60,0.00,,,0.00,meteohub,2013-02-05 19:00:00,
2013-02-05 13:05:00,48.0,32.2,30.05,NNW,346,17.0,26.0,54,0.00,,,0.00,meteohub,2013-02-05 19:05:00,
2013-02-05 13:10:00,48.0,33.1,30.05,NNW,327,17.0,26.0,56,0.00,,,0.00,meteohub,2013-02-05 19:10:00,
2013-02-05 13:15:00,48.0,33.4,30.05,NNW,335,19.0,26.0,57,0.00,,,0.00,meteohub,2013-02-05 19:15:00,
2013-02-05 13:20:00,48.2,34.2,30.05,North,350,23.0,26.0,58,0.00,,,0.00,meteohub,2013-02-05 19:20:00,
2013-02-05 13:25:00,48.0,33.1,30.05,NW,317,16.0,25.0,56,0.00,,,0.00,meteohub,2013-02-05 19:25:00,
2013-02-05 13:30:00,48.0,33.1,30.05,NNW,345,13.0,25.0,56,0.00,,,0.00,meteohub,2013-02-05 19:30:00,
2013-02-05 13:35:00,48.4,33.4,30.05,NW,320,17.0,25.0,56,0.00,,,0.00,meteohub,2013-02-05 19:35:00,
2013-02-05 13:41:00,48.6,34.0,30.05,NW,325,16.0,22.0,57,0.00,,,0.00,meteohub,2013-02-05 19:41:00,
2013-02-05 13:46:00,48.6,34.0,30.05,NW,311,16.0,22.0,57,0.00,,,0.00,meteohub,2013-02-05 19:46:00,
2013-02-05 13:51:00,48.7,33.3,30.05,NW,321,15.0,20.0,55,0.00,,,0.00,meteohub,2013-02-05 19:51:00,
2013-02-05 13:56:00,48.9,33.4,30.05,NW,316,17.0,21.0,55,0.00,,,0.00,meteohub,2013-02-05 19:56:00,
2013-02-05 14:01:00,48.6,32.7,30.05,WNW,296,16.0,21.0,54,0.00,,,0.00,meteohub,2013-02-05 20:01:00,
2013-02-05 14:06:00,48.7,32.4,30.05,NW,310,19.0,21.0,53,0.00,,,0.00,meteohub,2013-02-05 20:06:00,
2013-02-05 14:11:00,48.9,33.4,30.05,NW,324,19.0,23.0,55,0.00,,,0.00,meteohub,2013-02-05 20:11:00,
2013-02-05 14:16:00,48.7,33.3,30.05,NW,319,19.0,23.0,55,0.00,,,0.00,meteohub,2013-02-05 20:16:00,
2013-02-05 14:21:00,48.9,32.0,30.05,WNW,302,17.0,24.0,52,0.00,,,0.00,meteohub,2013-02-05 20:21:00,
2013-02-05 14:26:00,49.1,32.2,30.05,NW,317,17.0,24.0,52,0.00,,,0.00,meteohub,2013-02-05 20:26:00,
2013-02-05 14:31:00,49.1,32.7,30.05,NW,308,15.0,23.0,53,0.00,,,0.00,meteohub,2013-02-05 20:31:00,
2013-02-05 14:37:00,49.3,33.3,30.05,NNW,331,13.0,22.0,54,0.00,,,0.00,meteohub,2013-02-05 20:37:00,
2013-02-05 14:42:00,49.5,33.4,30.05,NW,319,15.0,21.0,54,0.00,,,0.00,meteohub,2013-02-05 20:42:00,
2013-02-05 14:47:00,49.1,31.8,30.05,NNW,333,20.0,22.0,51,0.00,,,0.00,meteohub,2013-02-05 20:47:00,
2013-02-05 14:52:00,49.1,32.7,30.05,NW,312,17.0,22.0,53,0.00,,,0.00,meteohub,2013-02-05 20:52:00,
2013-02-05 14:57:00,49.1,33.6,30.05,NNW,328,16.0,22.0,55,0.00,,,0.00,meteohub,2013-02-05 20:57:00,
2013-02-05 15:02:00,48.9,32.0,30.05,NW,315,11.0,21.0,52,0.00,,,0.00,meteohub,2013-02-05 21:02:00,
2013-02-05 15:07:00,48.9,32.0,30.06,NW,311,16.0,20.0,52,0.00,,,0.00,meteohub,2013-02-05 21:07:00,
2013-02-05 15:12:00,48.9,32.0,30.06,North,350,14.0,22.0,52,0.00,,,0.00,meteohub,2013-02-05 21:12:00,
2013-02-05 15:17:00,48.9,32.5,30.06,NNW,340,15.0,22.0,53,0.00,,,0.00,meteohub,2013-02-05 21:17:00,
2013-02-05 15:22:00,48.9,31.6,30.06,North,349,14.0,21.0,51,0.00,,,0.00,meteohub,2013-02-05 21:22:00,
2013-02-05 15:27:00,48.9,31.6,30.06,NW,323,15.0,20.0,51,0.00,,,0.00,meteohub,2013-02-05 21:27:00,
2013-02-05 15:32:00,48.9,32.0,30.06,NNW,333,14.0,20.0,52,0.00,,,0.00,meteohub,2013-02-05 21:32:00,
2013-02-05 15:37:00,48.7,32.4,30.06,NNW,339,16.0,20.0,53,0.00,,,0.00,meteohub,2013-02-05 21:37:00,
2013-02-05 15:42:00,48.7,32.4,30.06,NW,323,12.0,19.0,53,0.00,,,0.00,meteohub,2013-02-05 21:42:00,
2013-02-05 15:47:00,48.7,32.4,30.06,North,349,10.0,19.0,53,0.00,,,0.00,meteohub,2013-02-05 21:47:00,
2013-02-05 15:52:00,48.7,32.4,30.06,NNW,328,12.0,19.0,53,0.00,,,0.00,meteohub,2013-02-05 21:52:00,
2013-02-05 15:57:00,48.7,32.9,30.06,NNW,337,10.0,17.0,54,0.00,,,0.00,meteohub,2013-02-05 21:57:00,
2013-02-05 16:02:00,48.7,31.8,30.06,NNW,335,11.0,16.0,52,0.00,,,0.00,meteohub,2013-02-05 22:02:00,
2013-02-05 16:07:00,48.9,33.1,30.06,NNW,338,9.0,16.0,54,0.00,,,0.00,meteohub,2013-02-05 22:07:00,
2013-02-05 16:12:00,48.9,32.5,30.06,NNW,336,11.0,16.0,53,0.00,,,0.00,meteohub,2013-02-05 22:12:00,
2013-02-05 16:17:00,48.7,32.4,30.06,NNW,342,13.0,16.0,53,0.00,,,0.00,meteohub,2013-02-05 22:17:00,
2013-02-05 16:22:00,48.6,31.3,30.06,NNW,338,11.0,16.0,51,0.00,,,0.00,meteohub,2013-02-05 22:22:00,
2013-02-05 16:27:00,48.6,32.7,30.06,NNW,347,10.0,16.0,54,0.00,,,0.00,meteohub,2013-02-05 22:27:00,
2013-02-05 16:32:00,48.6,32.7,30.06,NNW,346,8.0,16.0,54,0.00,,,0.00,meteohub,2013-02-05 22:32:00,
2013-02-05 16:37:00,48.4,32.0,30.06,NNW,348,8.0,13.0,53,0.00,,,0.00,meteohub,2013-02-05 22:37:00,
2013-02-05 16:42:00,48.0,32.2,30.06,North,355,8.0,12.0,54,0.00,,,0.00,meteohub,2013-02-05 22:42:00,
2013-02-05 16:47:00,48.0,32.5,30.06,North,355,8.0,12.0,55,0.00,,,0.00,meteohub,2013-02-05 22:47:00,
2013-02-05 16:52:00,48.0,32.2,30.06,North,351,7.0,12.0,54,0.00,,,0.00,meteohub,2013-02-05 22:52:00,
2013-02-05 16:57:00,47.7,33.3,30.06,NNW,347,4.0,10.0,57,0.00,,,0.00,meteohub,2013-02-05 22:57:00,
2013-02-05 17:02:00,47.5,32.2,30.06,NNW,332,5.0,9.0,55,0.00,,,0.00,meteohub,2013-02-05 23:02:00,
2013-02-05 17:07:00,46.9,32.0,30.06,North,350,6.0,9.0,56,0.00,,,0.00,meteohub,2013-02-05 23:07:00,
2013-02-05 17:12:00,46.6,31.3,30.06,North,349,6.0,8.0,55,0.00,,,0.00,meteohub,2013-02-05 23:12:00,
2013-02-05 17:17:00,46.6,30.7,30.06,North,350,5.0,8.0,54,0.00,,,0.00,meteohub,2013-02-05 23:17:00,
2013-02-05 17:22:00,46.6,30.4,30.06,NNW,348,4.0,7.0,53,0.00,,,0.00,meteohub,2013-02-05 23:22:00,
2013-02-05 17:27:00,46.6,30.4,30.06,North,0,3.0,6.0,53,0.00,,,0.00,meteohub,2013-02-05 23:27:00,
2013-02-05 17:32:00,46.4,29.7,30.06,North,355,3.0,6.0,52,0.00,,,0.00,meteohub,2013-02-05 23:32:00,
2013-02-05 17:37:00,46.2,29.5,30.06,North,350,4.0,5.0,52,0.00,,,0.00,meteohub,2013-02-05 23:37:00,
2013-02-05 17:42:00,46.2,29.5,30.06,NNW,340,3.0,4.0,52,0.00,,,0.00,meteohub,2013-02-05 23:42:00,
2013-02-05 17:47:00,45.9,29.3,30.06,NNW,340,4.0,4.0,52,0.00,,,0.00,meteohub,2013-02-05 23:47:00,
2013-02-05 17:52:00,45.9,29.3,30.06,NNW,331,3.0,4.0,52,0.00,,,0.00,meteohub,2013-02-05 23:52:00,
2013-02-05 17:57:00,45.9,29.3,30.06,NW,314,3.0,4.0,52,0.00,,,0.00,meteohub,2013-02-05 23:57:00,
2013-02-05 18:02:00,46.0,29.5,30.07,NW,309,3.0,4.0,52,0.00,,,0.00,meteohub,2013-02-06 00:02:00,
2013-02-05 18:07:00,45.7,29.1,30.07,NW,308,1.0,4.0,52,0.00,,,0.00,meteohub,2013-02-06 00:07:00,
2013-02-05 18:12:00,45.1,29.5,30.07,NW,309,0.0,4.0,54,0.00,,,0.00,meteohub,2013-02-06 00:12:00,
2013-02-05 18:17:00,44.1,29.3,30.07,NW,309,0.0,4.0,56,0.00,,,0.00,meteohub,2013-02-06 00:17:00,
2013-02-05 18:22:00,43.2,29.8,30.07,NW,309,0.0,2.0,59,0.00,,,0.00,meteohub,2013-02-06 00:22:00,
2013-02-05 18:27:00,42.6,29.3,30.07,NW,309,0.0,0.0,59,0.00,,,0.00,meteohub,2013-02-06 00:27:00,
2013-02-05 18:32:00,42.3,29.3,30.07,NW,308,0.0,0.0,60,0.00,,,0.00,meteohub,2013-02-06 00:32:00,
2013-02-05 18:37:00,41.7,29.3,30.07,NW,309,0.0,0.0,61,0.00,,,0.00,meteohub,2013-02-06 00:37:00,
2013-02-05 18:42:00,40.8,29.1,30.07,NNE,13,0.0,0.0,63,0.00,,,0.00,meteohub,2013-02-06 00:42:00,
2013-02-05 18:47:00,40.1,28.9,30.08,NNE,17,0.0,0.0,64,0.00,,,0.00,meteohub,2013-02-06 00:47:00,
2013-02-05 18:52:00,40.1,29.3,30.08,NNE,17,4.0,0.0,65,0.00,,,0.00,meteohub,2013-02-06 00:52:00,
2013-02-05 18:57:00,39.6,28.8,30.08,NNE,17,3.0,5.0,65,0.00,,,0.00,meteohub,2013-02-06 00:57:00,
2013-02-05 19:02:00,38.5,28.4,30.08,NNE,17,2.0,5.0,67,0.00,,,0.00,meteohub,2013-02-06 01:02:00,
2013-02-05 19:07:00,37.8,28.6,30.09,NNE,17,2.0,5.0,69,0.00,,,0.00,meteohub,2013-02-06 01:07:00,
2013-02-05 19:12:00,37.0,28.6,30.08,NNE,17,3.0,4.0,71,0.00,,,0.00,meteohub,2013-02-06 01:12:00,
2013-02-05 19:17:00,36.7,28.6,30.09,NNE,30,3.0,4.0,72,0.00,,,0.00,meteohub,2013-02-06 01:17:00,
2013-02-05 19:22:00,36.9,28.8,30.09,NE,40,4.0,5.0,72,0.00,,,0.00,meteohub,2013-02-06 01:22:00,
2013-02-05 19:27:00,36.5,28.4,30.09,NE,40,2.0,5.0,72,0.00,,,0.00,meteohub,2013-02-06 01:27:00,
2013-02-05 19:32:00,36.0,28.2,30.09,NE,40,3.0,5.0,73,0.00,,,0.00,meteohub,2013-02-06 01:32:00,
2013-02-05 19:37:00,36.1,28.6,30.09,NE,49,4.0,5.0,74,0.00,,,0.00,meteohub,2013-02-06 01:37:00,
2013-02-05 19:42:00,37.9,29.3,30.09,ENE,61,5.0,6.0,71,0.00,,,0.00,meteohub,2013-02-06 01:42:00,
2013-02-05 19:47:00,38.8,29.1,30.09,East,79,2.0,6.0,68,0.00,,,0.00,meteohub,2013-02-06 01:47:00,
2013-02-05 19:52:00,38.1,28.6,30.09,NE,47,0.0,6.0,68,0.00,,,0.00,meteohub,2013-02-06 01:52:00,
2013-02-05 19:57:00,37.0,28.2,30.09,NE,48,0.0,6.0,70,0.00,,,0.00,meteohub,2013-02-06 01:57:00,
2013-02-05 20:02:00,36.7,28.6,30.09,NE,48,0.0,5.0,72,0.00,,,0.00,meteohub,2013-02-06 02:02:00,
2013-02-05 20:07:00,36.5,28.8,30.09,NE,48,0.0,0.0,73,0.00,,,0.00,meteohub,2013-02-06 02:07:00,
2013-02-05 20:12:00,36.3,28.6,30.09,NE,48,0.0,0.0,73,0.00,,,0.00,meteohub,2013-02-06 02:12:00,
2013-02-05 20:17:00,35.8,28.4,30.09,SE,145,0.0,0.0,74,0.00,,,0.00,meteohub,2013-02-06 02:17:00,
2013-02-05 20:22:00,35.4,28.2,30.09,SE,145,0.0,0.0,75,0.00,,,0.00,meteohub,2013-02-06 02:22:00,
2013-02-05 20:27:00,36.0,28.8,30.10,SE,145,0.0,0.0,75,0.00,,,0.00,meteohub,2013-02-06 02:27:00,
2013-02-05 20:32:00,35.8,28.4,30.10,SE,145,0.0,0.0,74,0.00,,,0.00,meteohub,2013-02-06 02:32:00,
2013-02-05 20:37:00,35.2,28.0,30.10,SE,145,0.0,0.0,75,0.00,,,0.00,meteohub,2013-02-06 02:37:00,
2013-02-05 20:42:00,35.1,28.2,30.10,SE,145,0.0,0.0,76,0.00,,,0.00,meteohub,2013-02-06 02:42:00,
2013-02-05 20:47:00,34.7,27.9,30.10,SE,145,0.0,0.0,76,0.00,,,0.00,meteohub,2013-02-06 02:47:00,
2013-02-05 20:52:00,34.3,27.9,30.09,SE,145,0.0,0.0,77,0.00,,,0.00,meteohub,2013-02-06 02:52:00,
2013-02-05 20:57:00,34.0,27.9,30.09,ENE,67,0.0,0.0,78,0.00,,,0.00,meteohub,2013-02-06 02:57:00,
2013-02-05 21:02:00,35.2,29.3,30.09,East,82,3.0,5.0,79,0.00,,,0.00,meteohub,2013-02-06 03:02:00,
2013-02-05 21:07:00,36.9,29.3,30.09,ENE,73,3.0,5.0,74,0.00,,,0.00,meteohub,2013-02-06 03:07:00,
2013-02-05 21:12:00,37.9,29.3,30.09,East,84,4.0,5.0,71,0.00,,,0.00,meteohub,2013-02-06 03:12:00,
2013-02-05 21:17:00,38.1,28.9,30.09,SE,126,0.0,6.0,69,0.00,,,0.00,meteohub,2013-02-06 03:17:00,
2013-02-05 21:22:00,36.9,28.4,30.09,ESE,113,2.0,7.0,71,0.00,,,0.00,meteohub,2013-02-06 03:22:00,
2013-02-05 21:27:00,36.0,28.2,30.09,ESE,104,5.0,7.0,73,0.00,,,0.00,meteohub,2013-02-06 03:27:00,
2013-02-05 21:32:00,36.0,28.8,30.10,ESE,106,4.0,6.0,75,0.00,,,0.00,meteohub,2013-02-06 03:32:00,
2013-02-05 21:37:00,36.3,28.6,30.09,ENE,73,2.0,5.0,73,0.00,,,0.00,meteohub,2013-02-06 03:37:00,
2013-02-05 21:42:00,37.0,28.9,30.09,East,84,4.0,5.0,72,0.00,,,0.00,meteohub,2013-02-06 03:42:00,
2013-02-05 21:47:00,37.8,28.9,30.09,East,96,5.0,6.0,70,0.00,,,0.00,meteohub,2013-02-06 03:47:00,
2013-02-05 21:52:00,37.9,28.8,30.09,East,93,5.0,6.0,69,0.00,,,0.00,meteohub,2013-02-06 03:52:00,
2013-02-05 21:57:00,38.1,28.9,30.09,East,90,4.0,7.0,69,0.00,,,0.00,meteohub,2013-02-06 03:57:00,
2013-02-05 22:02:00,38.3,28.8,30.09,ENE,74,5.0,7.0,68,0.00,,,0.00,meteohub,2013-02-06 04:02:00,
2013-02-05 22:07:00,38.5,28.8,30.09,East,101,5.0,7.0,68,0.00,,,0.00,meteohub,2013-02-06 04:07:00,
2013-02-05 22:12:00,38.3,28.8,30.09,ENE,63,4.0,7.0,68,0.00,,,0.00,meteohub,2013-02-06 04:12:00,
2013-02-05 22:17:00,37.9,28.8,30.09,East,91,6.0,7.0,69,0.00,,,0.00,meteohub,2013-02-06 04:17:00,
2013-02-05 22:22:00,37.6,28.4,30.10,ESE,113,4.0,7.0,69,0.00,,,0.00,meteohub,2013-02-06 04:22:00,
2013-02-05 22:27:00,36.1,27.3,30.10,South,171,5.0,6.0,70,0.00,,,0.00,meteohub,2013-02-06 04:27:00,
2013-02-05 22:32:00,34.0,27.1,30.11,SE,134,6.0,6.0,76,0.00,,,0.00,meteohub,2013-02-06 04:32:00,
2013-02-05 22:37:00,33.6,27.5,30.11,SE,132,5.0,8.0,78,0.00,,,0.00,meteohub,2013-02-06 04:37:00,
2013-02-05 22:42:00,33.4,27.7,30.11,SSE,148,6.0,8.0,79,0.00,,,0.00,meteohub,2013-02-06 04:42:00,
2013-02-05 22:47:00,33.8,28.0,30.10,SE,134,6.0,8.0,79,0.00,,,0.00,meteohub,2013-02-06 04:47:00,
2013-02-05 22:52:00,34.2,28.0,30.10,SE,128,5.0,7.0,78,0.00,,,0.00,meteohub,2013-02-06 04:52:00,
2013-02-05 22:57:00,34.2,28.0,30.10,SE,131,6.0,7.0,78,0.00,,,0.00,meteohub,2013-02-06 04:57:00,
2013-02-05 23:00:00,34.2,28.0,30.10,SE,133,9.0,9.0,78,0.00,,,0.00,meteohub,2013-02-06 05:00:00,
2013-02-05 23:02:00,34.3,28.2,30.11,SE,130,8.0,8.0,78,0.00,,,0.00,meteohub,2013-02-06 05:02:00,
2013-02-05 23:03:00,34.3,28.2,30.11,SE,130,8.0,8.0,78,0.00,,,0.00,meteohub,2013-02-06 05:03:00,
2013-02-05 23:08:00,34.2,28.0,30.11,SE,128,5.0,10.0,78,0.00,,,0.00,meteohub,2013-02-06 05:08:00,
2013-02-05 23:13:00,33.8,27.7,30.11,SE,130,6.0,10.0,78,0.00,,,0.00,meteohub,2013-02-06 05:13:00,
2013-02-05 23:18:00,33.6,27.9,30.10,SE,135,6.0,10.0,79,0.00,,,0.00,meteohub,2013-02-06 05:18:00,
2013-02-05 23:23:00,34.0,28.2,30.10,SE,140,8.0,8.0,79,0.00,,,0.00,meteohub,2013-02-06 05:23:00,
2013-02-05 23:28:00,34.0,28.2,30.10,SE,125,5.0,8.0,79,0.00,,,0.00,meteohub,2013-02-06 05:28:00,
2013-02-05 23:33:00,34.0,28.2,30.10,ESE,114,5.0,8.0,79,0.00,,,0.00,meteohub,2013-02-06 05:33:00,
2013-02-05 23:38:00,34.0,28.2,30.10,SE,143,8.0,8.0,79,0.00,,,0.00,meteohub,2013-02-06 05:38:00,
2013-02-05 23:43:00,34.0,28.2,30.11,SE,134,6.0,9.0,79,0.00,,,0.00,meteohub,2013-02-06 05:43:00,
2013-02-05 23:48:00,33.6,28.0,30.11,ESE,123,8.0,11.0,80,0.00,,,0.00,meteohub,2013-02-06 05:48:00,
2013-02-05 23:53:00,33.6,28.0,30.10,SE,130,8.0,11.0,80,0.00,,,0.00,meteohub,2013-02-06 05:53:00,
2013-02-05 23:58:00,33.4,28.2,30.10,SE,131,7.0,11.0,81,0.00,,,0.00,meteohub,2013-02-06 05:58:00,